Retour au catalogue

COSMOS 886 DEB

ActifLEO
NORAD 9823·DEBRIS·🇷🇺 Russia

Lancé Dec 27, 1976 depuis Baikonur Cosmodrome

Loading…

Prochains Passages (prochaines 24 heures)

TLE

FraisSource: Space-Track

Époque: Sep 14, 2026, 09:49 UTC

1 09823U 76126AK  26257.40928485  .00000576  00000-0  28152-3 0  9995
2 09823  65.7983 310.4790 0910399 340.9676  15.9276 13.00549807326673

Suivez COSMOS 886 DEB en temps réel avec AllMySat

Download on the App Store